Regional Weather Roundup
Issued by NWS

Home | Current Version | Previous Version | Text Only | Print | Product List | Glossary On
Versions: 1 2 3 4 5 6 7 8 9 10 11 12 13 14 15 16 17 18 19 20 21 22 23 24 25 26 27 28 29 30 31 32 33 34 35 36 37 38 39 40 41 42 43 44 45 46 47 48 49 50
000
ASUS45 KABQ 271101
RWRNM
WEATHER ROUNDUP FOR NEW MEXICO
NATIONAL WEATHER SERVICE ALBUQUERQUE NM
400 AM MST TUE JAN 27 2015

NOTE: "FAIR" MEANS FEW OR NO CLOUDS BELOW 12,000 FEET AGL WITH NO
       SIGNIFICANT WEATHER OR OBSTRUCTIONS TO VISION.

      THIS PRODUCT IS RELEASED AS TWO VERSIONS.  ONE VERSION NEAR
      THE TOP OF THE HOUR CONTAINING PRELIMINARY DATA FROM ALBUQUERQUE
      AND OTHER STATIONS.  A FINAL VERSION WITH ADDITIONAL DATA IS
      ISSUED ABOUT 10 MINUTES AFTER THE HOUR.

NMZ501-503-504-510>518-271200-
NORTHWEST PLATEAU/NORTHCENTRAL MOUNTAINS

CITY           SKY/WX    TMP DP  RH WIND       PRES   REMARKS
FARMINGTON     CLEAR     34  24  67 E10       30.32S WCI  26
SANTA FE       PTCLDY    35  26  69 N16       30.35F WCI  25
TAOS           PTCLDY    27  21  80 N6        30.40F WCI  20

$$
NMZ402-403-502-505>509-271200-
WESTCENTRAL MOUNTAINS/SOUTHWEST MOUNTAINS

CITY           SKY/WX    TMP DP  RH WIND       PRES   REMARKS
GALLUP         CLEAR     25  21  85 CALM      30.33F
GRANTS         PTCLDY    25  23  91 NW12      30.35F WCI  14
SILVER CITY    MOCLDY    41  28  60 N10       30.33F

$$
NMZ407-409-411-412-271200-
SOUTHERN DESERTS

CITY           SKY/WX    TMP DP  RH WIND       PRES   REMARKS
DEMING         CLOUDY    46  33  60 CALM      30.30S
HOLLOMAN AFB   CLOUDY    36  31  81 E5        30.28S WCI  32
ALAMOGORDO     MOCLDY    37  30  75 E7        30.31R WCI  32
T OR C         CLOUDY    43  29  57 N3        30.30S

$$
NMZ519>523-271200-
CENTRAL VALLEYS/CENTRAL HIGHLANDS

CITY           SKY/WX    TMP DP  RH WIND       PRES   REMARKS
ALBUQUERQUE    PTCLDY    38  27  64 N3        30.32F
DOUBLE EAGLE   PTCLDY    31  25  77 NW8       30.34F WCI  24
MORIARTY ARPT  FAIR      25  22  89 CALM      30.35F
CLINES CORNERS MOCLDY    41  21  44 N8        30.33F
BELEN          FAIR      29  26  88 NE3       30.33S
SOCORRO        NOT AVBL

$$
NMZ524>526-539-540-271200-
SOUTHCENTRAL MOUNTAINS

CITY           SKY/WX    TMP DP  RH WIND       PRES   REMARKS
RUIDOSO        NOT AVBL

$$
NMZ527>531-271200-
NORTHEAST HIGHLANDS/NORTHEAST PLAINS

CITY           SKY/WX    TMP DP  RH WIND       PRES   REMARKS
LAS VEGAS      PTCLDY    31  23  72 NE5       30.34F WCI  26
RATON          CLEAR     30  24  78 NE7       30.31F WCI  23
CLAYTON        CLEAR     43  26  51 W10       30.23F

$$
NMZ532>537-271200-
EASTCENTRAL PLAINS

CITY           SKY/WX    TMP DP  RH WIND       PRES   REMARKS
TUCUMCARI      LGT RAIN  36  30  79 W5        30.24F WCI  32
CANNON AFB     CLEAR     41  29  63 N10       30.24F
CLOVIS AIRPORT CLEAR     37  28  70 N10       30.24F WCI  30

$$
NMZ028-029-538-271200-
SOUTHEAST PLAINS

CITY           SKY/WX    TMP DP  RH WIND       PRES   REMARKS
ROSWELL        CLEAR     34  31  88 N7        30.25F WCI  28
ARTESIA        PTCLDY    34  34 100 NW12      30.27S WCI  25
CARLSBAD       CLEAR     36  31  82 W3        30.25S
HOBBS          PTCLDY    37  32  81 NW9       30.25S WCI  31


$$


USA.gov is the U.S. government's official web portal to all federal, state and local government web resources and services.